Allentown, PA

7:02 AM EDT on August 24, 2019 (GMT -0400)
Allentown

Weather History for KXLL - May, 2019

Change the Weather History Date:

Monday, May 20, 2019

  Actual Average (WUND) Record (WUND)
Temperature  
Mean Temperature 74 °F -  
Max Temperature 82 °F - - (-1)
Min Temperature 66 °F - - (-1)
Cooling Degree Days 9    
Growing Degree Days 24 (Base 50)    
Moisture  
Dew Point 63 °F    
Average Humidity 70    
Maximum Humidity 100    
Minimum Humidity 39    
Precipitation  
Precipitation 0.25 in - - ()
Sea Level Pressure  
Sea Level Pressure 29.83 in    
Wind  
Wind Speed 6 mph ()    
Max Wind Speed 18 mph    
Max Gust Speed 26 mph    
Visibility 9.3 miles    
Events Rain , Thunderstorm    
Averages and records for this station are not official NWS values.
T = Trace of Precipitation, MM = Missing Value Source: Averaged Metar Reports

Daily Weather History Graph

Daily Weather History Graph

Search for Another Location

Airport or City:

Astronomy

May. 20, 2019 Rise Set
Actual Time 5:41 AM EDT 8:16 PM EDT
Civil Twilight 5:09 AM EDT 8:47 PM EDT
Nautical Twilight 4:30 AM EDT 9:27 PM EDT
Astronomical Twilight 3:46 AM EDT 10:11 PM EDT
Moon 10:15 PM EDT (5/20) 7:07 AM EDT (5/20)
Length of Visible Light 15h 38m
Length of Day
14h 35m
Waning Gibbous, 96% of the Moon is Illuminated
May 20
Waning Gibbous
May 26
Last Quarter
Jun 3
New
Jun 10
First Quarter
Jun 17
Full

Hourly Weather History & Observations

Time (EDT) Temp. Heat Index Dew Point Humidity Pressure Visibility Wind Dir Wind Speed Gust Speed Precip Events Conditions
12:15 AM 68.0 °F - 66.2 °F 94% 29.94 in 4.0 mi WNW 3.5 mph - 0.11 in Rain , Thunderstorm Heavy Thunderstorms and Rain
12:35 AM 66.2 °F - 66.2 °F 100% 29.93 in 10.0 mi NNE 3.5 mph - 0.11 in Thunderstorm Thunderstorm
12:55 AM 68.0 °F - 68.0 °F 100% 29.91 in 10.0 mi SE 10.4 mph - 0.11 in   Mostly Cloudy
1:15 AM 68.0 °F - 68.0 °F 100% 29.90 in 10.0 mi South 4.6 mph - N/A Thunderstorm Scattered Clouds
1:35 AM 68.0 °F - 68.0 °F 100% 29.92 in 10.0 mi Calm Calm - N/A Thunderstorm Thunderstorm
1:55 AM 68.0 °F - 68.0 °F 100% 29.93 in 5.0 mi WSW 3.5 mph - 0.13 in Rain , Thunderstorm Light Thunderstorms and Rain
2:15 AM 68.0 °F - 68.0 °F 100% 29.90 in 10.0 mi SE 3.5 mph - 0.01 in Rain , Thunderstorm Light Thunderstorms and Rain
2:35 AM 69.8 °F - 68.0 °F 94% 29.88 in 10.0 mi SSE 3.5 mph - 0.01 in   Mostly Cloudy
2:55 AM 69.8 °F - 68.0 °F 94% 29.87 in 10.0 mi SSE 3.5 mph - 0.01 in   Scattered Clouds
3:15 AM 69.8 °F - 68.0 °F 94% 29.86 in 10.0 mi SW 3.5 mph - N/A Rain Light Rain
3:35 AM 68.0 °F - 68.0 °F 100% 29.86 in 10.0 mi Calm Calm - N/A   Clear
3:55 AM 68.0 °F - 68.0 °F 100% 29.86 in 7.0 mi Calm Calm - N/A   Clear
4:15 AM 68.0 °F - 68.0 °F 100% 29.85 in 7.0 mi Calm Calm - N/A   Clear
4:35 AM 68.0 °F - 68.0 °F 100% 29.84 in 10.0 mi WSW 3.5 mph - N/A   Clear
4:55 AM 68.0 °F - 68.0 °F 100% 29.84 in 10.0 mi SSW 5.8 mph - N/A   Scattered Clouds
5:15 AM 68.0 °F - 68.0 °F 100% 29.84 in 10.0 mi SW 5.8 mph - N/A   Clear
5:35 AM 68.0 °F - 68.0 °F 100% 29.84 in 7.0 mi SW 5.8 mph - N/A   Clear
5:55 AM 68.0 °F - 68.0 °F 100% 29.85 in 7.0 mi WSW 4.6 mph - N/A   Clear
6:15 AM 68.0 °F - 68.0 °F 100% 29.86 in 5.0 mi Calm Calm - N/A   Clear
6:35 AM 68.0 °F - 68.0 °F 100% 29.87 in 5.0 mi Calm Calm - N/A   Scattered Clouds
6:55 AM 68.0 °F - 68.0 °F 100% 29.87 in 7.0 mi Calm Calm - N/A   Scattered Clouds
7:15 AM 68.0 °F - 68.0 °F 100% 29.88 in 7.0 mi SW 4.6 mph - N/A   Clear
7:35 AM 69.8 °F - 68.0 °F 94% 29.88 in 7.0 mi SW 4.6 mph - N/A   Scattered Clouds
7:55 AM 69.8 °F - 69.8 °F 100% 29.88 in 7.0 mi Calm Calm - N/A   Scattered Clouds
8:15 AM 69.8 °F - 69.8 °F 100% 29.87 in 7.0 mi Calm Calm - N/A   Scattered Clouds
8:35 AM 71.6 °F - 69.8 °F 94% 29.87 in 10.0 mi SW 4.6 mph - N/A   Clear
8:55 AM 71.6 °F - 69.8 °F 94% 29.87 in 10.0 mi SW 3.5 mph - N/A   Clear
9:15 AM 73.4 °F - 69.8 °F 88% 29.86 in 10.0 mi WSW 4.6 mph - N/A   Clear
9:35 AM 75.2 °F - 69.8 °F 83% 29.86 in 10.0 mi WSW 8.1 mph - N/A   Clear
9:55 AM 77.0 °F - 68.0 °F 74% 29.86 in 10.0 mi SW 6.9 mph - N/A   Clear
10:15 AM 78.8 °F - 68.0 °F 69% 29.85 in 10.0 mi WSW 8.1 mph - N/A   Clear
10:35 AM 78.8 °F - 66.2 °F 65% 29.85 in 10.0 mi WSW 10.4 mph 17.3 mph N/A   Clear
10:55 AM 78.8 °F - 64.4 °F 61% 29.85 in 10.0 mi WSW 16.1 mph 21.9 mph N/A   Clear
11:15 AM 78.8 °F - 66.2 °F 65% 29.85 in 10.0 mi WSW 11.5 mph 20.7 mph N/A   Clear
11:35 AM 80.6 °F 82.7 °F 66.2 °F 61% 29.84 in 10.0 mi SW 15.0 mph 25.3 mph N/A   Scattered Clouds
11:55 AM 80.6 °F 82.3 °F 64.4 °F 58% 29.84 in 10.0 mi WSW 9.2 mph 25.3 mph N/A   Scattered Clouds
12:15 PM 82.4 °F 84.6 °F 66.2 °F 58% 29.83 in 10.0 mi West 10.4 mph 21.9 mph N/A   Mostly Cloudy
12:35 PM 80.6 °F 82.3 °F 64.4 °F 58% 29.83 in 10.0 mi SW 16.1 mph 21.9 mph N/A   Scattered Clouds
12:55 PM 80.6 °F 82.3 °F 64.4 °F 58% 29.82 in 10.0 mi SW 13.8 mph 21.9 mph N/A   Scattered Clouds
1:15 PM 80.6 °F 82.3 °F 64.4 °F 58% 29.81 in 10.0 mi WSW 9.2 mph - N/A   Mostly Cloudy
1:35 PM 80.6 °F 81.8 °F 62.6 °F 54% 29.81 in 10.0 mi SW 16.1 mph 21.9 mph N/A   Scattered Clouds
1:55 PM 82.4 °F 83.4 °F 62.6 °F 51% 29.79 in 10.0 mi SW 15.0 mph 24.2 mph N/A   Clear
2:15 PM 82.4 °F 83.4 °F 62.6 °F 51% 29.78 in 10.0 mi SW 18.4 mph 24.2 mph N/A   Scattered Clouds
2:35 PM 80.6 °F 81.8 °F 62.6 °F 54% 29.78 in 10.0 mi SW 10.4 mph 24.2 mph N/A   Mostly Cloudy
2:55 PM 80.6 °F 81.8 °F 62.6 °F 54% 29.78 in 10.0 mi SW 9.2 mph 19.6 mph N/A   Mostly Cloudy
3:15 PM 80.6 °F 82.3 °F 64.4 °F 58% 29.78 in 10.0 mi West 10.4 mph 19.6 mph N/A Rain Light Rain
3:35 PM 80.6 °F 82.3 °F 64.4 °F 58% 29.77 in 10.0 mi WSW 6.9 mph 16.1 mph N/A   Mostly Cloudy
3:55 PM 82.4 °F 83.4 °F 62.6 °F 51% 29.76 in 10.0 mi West 11.5 mph 21.9 mph N/A   Scattered Clouds
4:15 PM 82.4 °F 83.4 °F 62.6 °F 51% 29.75 in 10.0 mi WSW 13.8 mph 23.0 mph N/A   Scattered Clouds
4:35 PM 82.4 °F 82.9 °F 60.8 °F 48% 29.75 in 10.0 mi WSW 15.0 mph 26.5 mph N/A   Scattered Clouds
4:55 PM 82.4 °F 82.9 °F 60.8 °F 48% 29.75 in 10.0 mi WSW 12.7 mph 23.0 mph N/A   Clear
5:15 PM 82.4 °F 82.9 °F 60.8 °F 48% 29.76 in 10.0 mi West 12.7 mph 19.6 mph N/A   Mostly Cloudy
5:35 PM 82.4 °F 82.9 °F 60.8 °F 48% 29.76 in 10.0 mi WNW 9.2 mph 21.9 mph N/A   Scattered Clouds
5:55 PM 82.4 °F 82.5 °F 59.0 °F 45% 29.76 in 10.0 mi West 12.7 mph 20.7 mph N/A   Clear
6:15 PM 82.4 °F 82.5 °F 59.0 °F 45% 29.76 in 10.0 mi West 10.4 mph 16.1 mph N/A   Scattered Clouds
6:35 PM 80.6 °F 80.5 °F 55.4 °F 42% 29.76 in 10.0 mi West 10.4 mph 16.1 mph N/A   Scattered Clouds
6:55 PM 80.6 °F 80.5 °F 55.4 °F 42% 29.76 in 10.0 mi West 11.5 mph 17.3 mph N/A   Clear
7:15 PM 80.6 °F 80.5 °F 55.4 °F 42% 29.77 in 10.0 mi West 9.2 mph 18.4 mph N/A   Clear
7:35 PM 78.8 °F - 53.6 °F 42% 29.77 in 10.0 mi WNW 8.1 mph - N/A   Clear
7:55 PM 78.8 °F - 53.6 °F 42% 29.78 in 10.0 mi West 5.8 mph - N/A   Clear
8:15 PM 77.0 °F - 53.6 °F 44% 29.78 in 10.0 mi West 9.2 mph - N/A   Clear
8:35 PM 77.0 °F - 51.8 °F 41% 29.78 in 10.0 mi West 9.2 mph - N/A   Clear
8:55 PM 77.0 °F - 51.8 °F 41% 29.78 in 10.0 mi West 10.4 mph - N/A   Clear
9:15 PM 77.0 °F - 50.0 °F 39% 29.79 in 10.0 mi West 10.4 mph 18.4 mph N/A   Clear
9:35 PM 75.2 °F - 51.8 °F 44% 29.80 in 10.0 mi West 6.9 mph - N/A   Clear
9:55 PM 73.4 °F - 51.8 °F 47% 29.81 in 10.0 mi West 6.9 mph - N/A   Clear
10:15 PM 73.4 °F - 51.8 °F 47% 29.81 in 10.0 mi West 8.1 mph - N/A   Clear
10:35 PM 73.4 °F - 51.8 °F 47% 29.82 in 10.0 mi West 8.1 mph - N/A   Clear
10:55 PM 73.4 °F - 51.8 °F 47% 29.84 in 10.0 mi West 12.7 mph 21.9 mph N/A   Clear
11:15 PM 69.8 °F - 53.6 °F 56% 29.85 in 10.0 mi NNW 13.8 mph 19.6 mph N/A   Clear
11:35 PM 68.0 °F - 53.6 °F 60% 29.86 in 10.0 mi North 15.0 mph 18.4 mph N/A   Clear
11:55 PM 68.0 °F - 51.8 °F 56% 29.87 in 10.0 mi North 12.7 mph 17.3 mph N/A   Clear